[[{"header":{"parameterUnit":"m.s-1","parameterCategory":1,"la1":30.2991,"la2":30.254,"lo1":-89.0895,"lo2":-89.0444,"dy":0.0017,"dx":0.0017,"nx":28,"ny":28,"refTime":"2024-03-29T09:00:00:Z","depth":0,"parameterNumber":2,"parameterNumberName":"U-component_of_WINDS"},"data":[0,0,0,0,0,0,0,0,0,0,0,0,0,0,0,0,0,0,0,0,0,0,0,0,0,0,0,0,0,0,0,0,0,0,0,0,0,0,0,0,0,0,0,0,0,0,0,0,0,0,0,0,0,0,0,0,0,0,-1.4077,-1.4078,0,-1.4116,-1.4116,-1.4117,-1.4077,-1.4075,-1.4074,-1.4072,-1.4112,-1.4114,-1.4117,0,0,0,0,0,0,0,0,0,0,0,0,0,-1.3969,-1.3971,-1.4077,-1.4078,-1.4078,-1.4116,-1.4116,-1.4117,-1.4077,-1.4075,-1.4073,-1.4071,-1.4111,-1.4114,-1.4117,0,0,0,0,0,0,0,0,0,0,0,0,0,-1.4013,-1.3972,-1.4077,-1.4063,-1.4062,-1.4115,-1.4116,-1.4117,-1.4077,-1.4075,-1.4073,-1.4071,-1.411,-1.4114,-1.4118,-1.4187,0,0,-1.4129,-1.4131,0,0,0,0,0,0,0,0,-1.401,-1.4017,-1.4065,-1.4064,-1.4063,-1.4089,-1.4092,-1.414,-1.4078,-1.4072,-1.4072,-1.4069,-1.4106,-1.411,-1.4122,-1.4189,-1.4191,-1.4129,-1.4132,-1.4133,-1.4134,0,0,0,0,0,0,0,-1.4007,-1.4015,-1.4092,-1.4065,-1.4064,-1.4054,-1.4058,-1.4101,-1.4101,-1.4072,-1.4069,-1.4074,-1.4105,-1.4119,-1.4123,-1.4191,-1.4129,-1.4133,-1.4135,-1.4136,-1.4315,-1.4317,0,0,0,0,0,0,-1.4006,-1.4013,-1.4091,-1.4094,-1.403,-1.4058,-1.4062,-1.4083,-1.4101,-1.4101,-1.4076,-1.4072,-1.4114,-1.4119,-1.4124,-1.4206,-1.4133,-1.4137,-1.4139,-1.4312,-1.4315,-1.4318,0,0,0,0,0,0,-1.4004,-1.4013,-1.409,-1.4052,-1.4061,-1.4063,-1.4086,-1.4085,-1.4098,-1.4104,-1.4104,-1.409,-1.4112,-1.4119,-1.4171,-1.4207,-1.4138,-1.4142,-1.431,-1.4313,-1.4317,-1.437,0,0,0,0,0,0,-1.4001,-1.4013,-1.404,-1.4053,-1.4063,-1.4137,-1.4088,-1.4087,-1.4105,-1.41,-1.4117,-1.4118,-1.4111,-1.4166,-1.4175,-1.4211,-1.4145,-1.4306,-1.4311,-1.4316,-1.4365,-1.4375,-1.4384,0,0,0,0,0,-1.3997,-1.4054,-1.4041,-1.4051,-1.4097,-1.4139,-1.4144,-1.4135,-1.4108,-1.4135,-1.4138,-1.4117,-1.4201,-1.4172,-1.4182,-1.4219,-1.4304,-1.431,-1.4315,-1.4361,-1.4373,-1.4384,0,0,0,0,0,0,-1.4045,-1.4055,-1.4041,-1.4104,-1.4121,-1.4132,-1.4165,-1.4149,-1.4174,-1.4168,-1.4156,-1.416,-1.4215,-1.4222,-1.4189,-1.4286,-1.4248,-1.4256,-1.428,-1.4291,-1.43,-1.4298,-1.4148,0,0,0,0,0,-1.4062,-1.4095,-1.4103,-1.4157,-1.4166,-1.4164,-1.4182,-1.4174,-1.419,-1.4197,-1.4204,-1.4222,-1.4252,-1.4272,-1.43,-1.4366,-1.4368,-1.4396,-1.4406,-1.4413,-1.442,-1.4454,-1.4466,-1.4337,-1.4336,-1.4336,0,0,-1.41,-1.4109,-1.4131,-1.4167,-1.4179,-1.4213,-1.4171,-1.4209,-1.4234,-1.4203,-1.4253,-1.4258,-1.4277,-1.4336,-1.4362,-1.4343,-1.4456,-1.442,-1.4426,-1.4429,-1.4461,-1.4473,-1.4484,-1.434,-1.434,-1.4339,0,0,-1.4185,-1.4196,-1.4242,-1.4254,-1.4272,-1.427,-1.4281,-1.4294,-1.4297,-1.4346,-1.4323,-1.4353,-1.4405,-1.4419,-1.4432,-1.452,-1.4502,-1.453,-1.4579,-1.4612,-1.4622,-1.4631,-1.4661,-1.4672,-1.4537,-1.4537,-1.4537,0,-1.4229,-1.4279,-1.4267,-1.4307,-1.4323,-1.4296,-1.4342,-1.4354,-1.4381,-1.4392,-1.4371,-1.4435,-1.4445,-1.4506,-1.4528,-1.454,-1.4552,-1.4528,-1.4621,-1.463,-1.4638,-1.4667,-1.4679,-1.454,-1.454,-1.4539,-1.4539,0,-1.4332,-1.4367,-1.4402,-1.4427,-1.4447,-1.449,-1.4484,-1.4506,-1.4495,-1.4495,-1.4545,-1.4556,-1.4585,-1.4599,-1.4589,-1.4658,-1.4646,-1.4623,-1.4585,-1.4654,-1.4681,-1.4692,-1.4545,-1.4544,-1.4543,-1.4542,0,0,-1.4449,-1.4466,-1.4479,-1.4489,-1.4507,-1.4533,-1.4574,-1.4602,-1.462,-1.4639,-1.4673,-1.4717,-1.4695,-1.4711,-1.4702,-1.4731,-1.4799,-1.4705,-1.4705,-1.4721,-1.4874,-1.4891,-1.4904,-1.4786,-1.4788,-1.479,-1.4872,0,-1.4534,-1.4604,-1.4594,-1.4662,-1.4693,-1.4667,-1.4702,-1.4717,-1.4717,-1.4744,-1.4745,-1.4776,-1.4746,-1.4755,-1.4782,-1.4785,-1.4829,-1.4779,-1.4817,-1.4818,-1.4812,-1.4918,-1.4936,-1.5013,-1.4883,-1.4884,-1.4886,0,-1.4642,-1.4664,-1.4735,-1.4745,-1.4758,-1.479,-1.4814,-1.484,-1.4855,-1.4853,-1.487,-1.4855,-1.4895,-1.4856,-1.491,-1.4876,-1.4891,-1.4894,-1.4897,-1.49,-1.4856,-1.4923,-1.5037,-1.5049,-1.4902,-1.4901,-1.49,0,-1.4719,-1.4766,-1.4814,-1.4824,-1.4838,-1.4861,-1.4868,-1.488,-1.4897,-1.4918,-1.4928,-1.4954,-1.4968,-1.4988,-1.498,-1.4952,-1.5035,-1.4996,-1.5035,-1.5035,-1.5053,-1.5052,-1.5171,-1.5064,-1.5064,-1.5064,-1.5063,0,-1.4815,-1.4859,-1.4849,-1.4878,-1.4926,-1.4914,-1.4962,-1.4966,-1.4977,-1.5006,-1.4985,-1.5013,-1.5001,-1.5028,-1.5022,-1.5067,-1.5074,-1.5074,-1.5071,-1.5075,-1.5075,-1.5085,-1.5079,-1.5067,-1.5066,-1.5065,-1.5065,0,-1.4909,-1.4905,-1.4955,-1.4963,-1.4966,-1.5001,-1.5008,-1.5035,-1.5034,-1.5071,-1.5079,-1.5077,-1.5107,-1.5102,-1.5136,-1.5131,-1.5188,-1.5179,-1.5183,-1.518,-1.5219,-1.5215,-1.5348,-1.5364,-1.5247,-1.5248,-1.5249,0,-1.4971,-1.5004,-1.5015,-1.5033,-1.5041,-1.507,-1.5087,-1.5075,-1.5094,-1.5112,-1.5137,-1.5165,-1.5187,-1.5237,-1.5238,-1.5263,-1.5255,-1.53,-1.5259,-1.5261,-1.5254,-1.5252,-1.5255,-1.5308,-1.5309,-1.531,-1.5311,0,-1.5079,-1.5074,-1.5099,-1.5123,-1.5143,-1.5162,-1.5178,-1.5194,-1.5183,-1.5205,-1.5235,-1.5252,-1.5286,-1.5314,-1.5337,-1.5343,-1.5325,-1.5324,-1.5334,-1.5338,-1.5338,-1.5337,-1.5204,-1.5321,-1.532,-1.5319,-1.5319,-1.5318,-1.5158,-1.5186,-1.5197,-1.5225,-1.5236,-1.5251,-1.5277,-1.5278,-1.5303,-1.5329,-1.5321,-1.5355,-1.5367,-1.5396,-1.5405,-1.5432,-1.5415,-1.543,-1.5434,-1.5437,-1.5441,-1.5334,-1.5436,-1.5436,-1.5435,-1.5435,-1.5435,0,-1.5265,-1.5271,-1.5296,-1.5319,-1.5341,-1.5321,-1.5338,-1.5357,-1.5387,-1.54,-1.5422,-1.5456,-1.5482,-1.5485,-1.551,-1.553,-1.5523,-1.5537,-1.5535,-1.5537,-1.5456,-1.5444,-1.5543,-1.5543,-1.5543,-1.5543,-1.5543,-1.5543,-1.5323,-1.5368,-1.5364,-1.5414,-1.5419,-1.5453,-1.5463,-1.5477,-1.5487,-1.5526,-1.5547,-1.5549,-1.5557,-1.5582,-1.5605,-1.5605,-1.5615,-1.5633,-1.563,-1.5554,-1.5543,-1.5533,-1.5521,-1.5635,-1.5635,-1.5708,-1.5709,-1.571]},{"header":{"parameterUnit":"m.s-1","parameterCategory":1,"la1":30.2991,"la2":30.254,"lo1":-89.0895,"lo2":-89.0444,"dy":0.0017,"dx":0.0017,"nx":28,"ny":28,"refTime":"2024-03-29T09:00:00:Z","depth":0,"parameterNumber":3,"parameterNumberName":"V-component_of_WINDS"},"data":[0,0,0,0,0,0,0,0,0,0,0,0,0,0,0,0,0,0,0,0,0,0,0,0,0,0,0,0,0,0,0,0,0,0,0,0,0,0,0,0,0,0,0,0,0,0,0,0,0,0,0,0,0,0,0,0,0,0,-2.6549,-2.655,0,-2.6604,-2.6605,-2.6605,-2.659,-2.6588,-2.6587,-2.6586,-2.6639,-2.6642,-2.6644,0,0,0,0,0,0,0,0,0,0,0,0,0,-2.6427,-2.643,-2.6549,-2.655,-2.6551,-2.6604,-2.6605,-2.6606,-2.659,-2.6588,-2.6587,-2.6586,-2.6638,-2.6641,-2.6644,0,0,0,0,0,0,0,0,0,0,0,0,0,-2.6481,-2.643,-2.6549,-2.6549,-2.655,-2.6604,-2.6605,-2.6606,-2.659,-2.6588,-2.6587,-2.6585,-2.6638,-2.6641,-2.6645,-2.6701,0,0,-2.6656,-2.6658,0,0,0,0,0,0,0,0,-2.6478,-2.6485,-2.6549,-2.6549,-2.655,-2.6588,-2.6581,-2.6638,-2.659,-2.6575,-2.6586,-2.6584,-2.6624,-2.6628,-2.6642,-2.6704,-2.6706,-2.6656,-2.6659,-2.666,-2.6661,0,0,0,0,0,0,0,-2.6474,-2.6483,-2.6571,-2.655,-2.655,-2.6545,-2.6551,-2.6592,-2.6608,-2.6576,-2.6575,-2.6582,-2.6624,-2.6639,-2.6643,-2.6707,-2.6656,-2.6659,-2.6662,-2.6663,-2.6816,-2.6817,0,0,0,0,0,0,-2.647,-2.648,-2.6569,-2.6573,-2.6509,-2.6549,-2.6555,-2.6578,-2.6607,-2.661,-2.6583,-2.6581,-2.6633,-2.6639,-2.6645,-2.6712,-2.666,-2.6664,-2.6666,-2.6814,-2.6816,-2.6818,0,0,0,0,0,0,-2.6468,-2.6479,-2.6567,-2.6526,-2.6537,-2.6553,-2.6578,-2.658,-2.6595,-2.6613,-2.6615,-2.6596,-2.6632,-2.664,-2.6687,-2.6714,-2.6665,-2.6669,-2.6812,-2.6815,-2.6817,-2.6847,0,0,0,0,0,0,-2.6465,-2.6478,-2.65,-2.6527,-2.6539,-2.6609,-2.658,-2.6582,-2.6602,-2.6599,-2.6625,-2.6628,-2.6631,-2.6682,-2.6691,-2.6718,-2.6671,-2.6809,-2.6813,-2.6816,-2.6844,-2.6851,-2.6856,0,0,0,0,0,-2.646,-2.6506,-2.6501,-2.6512,-2.6568,-2.6611,-2.6618,-2.6622,-2.6604,-2.6626,-2.6637,-2.6627,-2.671,-2.6687,-2.6697,-2.6725,-2.6808,-2.6812,-2.6816,-2.6841,-2.6849,-2.6856,0,0,0,0,0,0,-2.6481,-2.651,-2.6505,-2.6561,-2.6584,-2.6608,-2.6636,-2.6631,-2.6658,-2.6655,-2.6657,-2.6663,-2.6711,-2.6723,-2.6697,-2.6781,-2.6756,-2.6762,-2.6771,-2.6779,-2.6786,-2.6781,-2.6674,0,0,0,0,0,-2.6493,-2.6526,-2.6549,-2.6596,-2.6608,-2.662,-2.6639,-2.664,-2.6663,-2.6673,-2.6688,-2.671,-2.6741,-2.6761,-2.679,-2.6846,-2.685,-2.687,-2.6876,-2.6881,-2.6887,-2.6916,-2.6924,-2.6832,-2.6832,-2.6832,0,0,-2.6516,-2.6536,-2.6557,-2.6601,-2.6619,-2.6652,-2.6628,-2.6665,-2.669,-2.6678,-2.6724,-2.6735,-2.676,-2.6812,-2.6835,-2.6823,-2.6913,-2.6887,-2.6891,-2.6893,-2.6921,-2.693,-2.6937,-2.6834,-2.6834,-2.6833,0,0,-2.6576,-2.6595,-2.6636,-2.6654,-2.6682,-2.669,-2.6699,-2.6725,-2.6732,-2.6779,-2.677,-2.6799,-2.6852,-2.687,-2.6886,-2.6952,-2.6943,-2.6961,-2.6994,-2.7022,-2.7029,-2.7036,-2.7058,-2.7067,-2.6967,-2.6967,-2.6967,0,-2.6601,-2.6653,-2.6657,-2.6695,-2.6714,-2.6706,-2.6746,-2.6764,-2.6799,-2.6812,-2.6798,-2.6864,-2.6881,-2.6935,-2.6952,-2.6965,-2.6975,-2.6958,-2.7028,-2.7035,-2.7041,-2.7062,-2.7071,-2.6969,-2.6968,-2.6968,-2.6968,0,-2.6682,-2.6718,-2.6747,-2.6783,-2.6805,-2.6844,-2.6853,-2.6875,-2.6874,-2.6883,-2.6929,-2.6948,-2.6981,-2.6994,-2.6993,-2.7049,-2.704,-2.7028,-2.7002,-2.7052,-2.7072,-2.708,-2.6971,-2.6971,-2.697,-2.697,0,0,-2.6756,-2.6793,-2.6804,-2.682,-2.6849,-2.6877,-2.6915,-2.6948,-2.6966,-2.699,-2.7021,-2.7067,-2.7055,-2.7073,-2.7074,-2.7099,-2.7148,-2.7083,-2.7083,-2.7093,-2.721,-2.7218,-2.7228,-2.7143,-2.7145,-2.7146,-2.7207,0,-2.6817,-2.6886,-2.6891,-2.6952,-2.6984,-2.6976,-2.7009,-2.703,-2.704,-2.7068,-2.7077,-2.7109,-2.7091,-2.7102,-2.7127,-2.7137,-2.7172,-2.7133,-2.7171,-2.7172,-2.7164,-2.7239,-2.7248,-2.7305,-2.7215,-2.7216,-2.7217,0,-2.6898,-2.6926,-2.6991,-2.7015,-2.7029,-2.7059,-2.7089,-2.7116,-2.7139,-2.7144,-2.7165,-2.7162,-2.7199,-2.7173,-2.7225,-2.7198,-2.7214,-2.7221,-2.7224,-2.7227,-2.7197,-2.7243,-2.7323,-2.7331,-2.723,-2.7229,-2.7228,0,-2.6945,-2.6998,-2.7044,-2.7057,-2.7087,-2.7108,-2.7122,-2.7143,-2.7163,-2.7189,-2.7201,-2.7231,-2.7247,-2.7269,-2.7274,-2.7255,-2.7325,-2.7299,-2.7328,-2.7328,-2.7343,-2.7342,-2.7426,-2.7355,-2.7354,-2.7354,-2.7354,0,-2.7012,-2.7052,-2.7065,-2.7093,-2.7136,-2.7141,-2.7183,-2.7195,-2.7215,-2.7243,-2.7239,-2.7266,-2.7271,-2.7299,-2.7303,-2.7344,-2.7351,-2.7355,-2.7355,-2.7355,-2.7354,-2.7365,-2.7361,-2.7357,-2.7356,-2.7356,-2.7355,0,-2.7071,-2.7082,-2.713,-2.7155,-2.7162,-2.7193,-2.7214,-2.724,-2.7248,-2.7285,-2.7294,-2.7307,-2.7339,-2.7347,-2.7385,-2.7387,-2.7436,-2.7433,-2.7428,-2.7428,-2.7456,-2.7453,-2.7549,-2.7562,-2.7483,-2.7484,-2.7484,0,-2.7113,-2.7144,-2.7172,-2.7191,-2.7206,-2.7237,-2.7257,-2.7263,-2.7283,-2.7312,-2.7334,-2.7366,-2.7392,-2.7444,-2.7456,-2.7485,-2.7482,-2.7513,-2.7486,-2.7484,-2.7481,-2.7479,-2.7481,-2.7518,-2.7519,-2.752,-2.752,0,-2.7186,-2.719,-2.7219,-2.7251,-2.7274,-2.7299,-2.7322,-2.7338,-2.7347,-2.737,-2.7403,-2.7423,-2.7463,-2.7494,-2.7523,-2.7535,-2.7529,-2.7529,-2.7537,-2.7537,-2.7532,-2.7534,-2.7441,-2.7527,-2.7526,-2.7526,-2.7525,-2.7525,-2.7238,-2.7264,-2.7288,-2.732,-2.7338,-2.736,-2.7386,-2.7398,-2.7426,-2.7459,-2.746,-2.7497,-2.7518,-2.7557,-2.7571,-2.7598,-2.7588,-2.76,-2.7603,-2.7606,-2.7608,-2.7529,-2.7604,-2.7603,-2.7603,-2.7603,-2.7603,0,-2.731,-2.7325,-2.7355,-2.7388,-2.7413,-2.7406,-2.7431,-2.7452,-2.7485,-2.7506,-2.7532,-2.757,-2.76,-2.7615,-2.7644,-2.7663,-2.7661,-2.7671,-2.7669,-2.7672,-2.7616,-2.7605,-2.7672,-2.7672,-2.7672,-2.7672,-2.7672,-2.7672,-2.735,-2.7394,-2.74,-2.7452,-2.7467,-2.7503,-2.7518,-2.7537,-2.7554,-2.7597,-2.7623,-2.7633,-2.7651,-2.7682,-2.7709,-2.7712,-2.7723,-2.7734,-2.7736,-2.7683,-2.7676,-2.7669,-2.7659,-2.7736,-2.7736,-2.7789,-2.779,-2.779]}]]